Location: Gungolding
(48.9246°N, 11.3502°E)
Time: 11:04:13
(UTC+02:00)

Transit 2A Rocket - All Passes

Search period start: 04 April 2020 00:00
Search period end: 14 April 2020 00:00
Orbit: 588 x 914 km, 66.7° (Epoch: 03 April)

Date Brightness Start Highest point End Pass type
(mag) Time Alt. Az. Time Alt. Az. Time Alt. Az.
04 Apr - 12:19:07 10° SSE 12:22:01 17° ESE 12:25:04 10° ENE daylight
04 Apr - 13:59:22 10° SW 14:03:54 72° NW 14:08:54 10° NNE daylight
04 Apr - 15:44:01 10° WNW 15:47:27 19° NNW 15:51:05 10° NNE daylight
04 Apr - 17:30:46 10° NNW 17:32:12 11° N 17:33:41 10° NNE daylight
04 Apr - 19:13:44 10° NNW 19:17:07 16° NNE 19:20:38 10° ENE daylight
04 Apr - 20:55:43 10° NNW 21:01:01 47° NE 21:06:42 10° ESE visible
04 Apr - 22:38:24 10° NW 22:43:38 40° WSW 22:49:09 10° S visible
05 Apr - 13:16:52 10° SSW 13:21:21 70° ESE 13:26:17 10° NE daylight
05 Apr - 15:00:33 10° W 15:04:27 25° NW 15:08:41 10° NNE daylight
05 Apr - 16:47:08 10° NNW 16:48:58 12° N 16:50:52 10° NNE daylight
05 Apr - 18:31:19 10° NNW 18:33:58 14° NNE 18:36:44 10° NE daylight
05 Apr - 20:13:17 10° NNW 20:18:14 33° NE 20:23:29 10° ESE visible
05 Apr - 21:55:39 10° NW 22:01:11 62° WSW 22:07:05 10° SSE visible
05 Apr - 23:41:02 10° W 23:42:52 12° WSW 23:44:45 10° WSW visible
06 Apr - 12:34:43 10° S 12:38:56 41° ESE 12:43:32 10° NE daylight
06 Apr - 14:17:18 10° WSW 14:21:35 35° NW 14:26:15 10° NNE daylight
06 Apr - 16:03:19 10° NW 16:05:47 14° NNW 16:08:21 10° NNE daylight
06 Apr - 17:48:47 10° NNW 17:50:46 12° N 17:52:50 10° NNE daylight
06 Apr - 19:30:52 10° NNW 19:35:20 25° NE 19:40:03 10° E daylight
06 Apr - 21:13:02 10° NW 21:18:39 87° ENE 21:24:39 10° SE visible
06 Apr - 22:56:45 10° WNW 23:00:41 19° WSW 23:04:47 10° SSW visible
07 Apr - 11:53:00 10° SSE 11:56:39 24° ESE 12:00:32 10° ENE daylight
07 Apr - 13:34:20 10° SW 13:38:49 53° NW 13:43:47 10° NNE daylight
07 Apr - 15:19:33 10° WNW 15:22:39 16° NNW 15:25:55 10° NNE daylight
07 Apr - 17:05:58 10° NNW 17:07:32 11° N 17:09:09 10° NNE daylight
07 Apr - 18:48:29 10° NNW 18:52:20 19° NNE 18:56:23 10° ENE daylight
07 Apr - 20:30:31 10° NNW 20:36:01 60° NE 20:41:54 10° SE visible
07 Apr - 22:13:31 10° NW 22:18:25 30° WSW 22:23:32 10° S visible
08 Apr - 11:12:05 10° SE 11:14:29 14° ESE 11:16:58 10° ENE daylight
08 Apr - 12:51:38 10° SW 12:56:12 85° NW 13:01:15 10° NE daylight
08 Apr - 14:35:57 10° W 14:39:36 21° NNW 14:43:31 10° NNE daylight
08 Apr - 16:22:38 10° NNW 16:24:17 11° N 16:25:59 10° NNE daylight
08 Apr - 18:06:03 10° NNW 18:09:15 16° NNE 18:12:34 10° ENE daylight
08 Apr - 19:48:04 10° NNW 19:53:18 41° NE 19:58:53 10° ESE daylight
08 Apr - 21:30:38 10° NW 21:36:01 47° WSW 21:41:44 10° S visible
09 Apr - 12:09:14 10° SSW 12:13:42 58° ESE 12:18:35 10° NE daylight
09 Apr - 13:52:33 10° W 13:56:39 28° NW 14:01:06 10° NNE daylight
09 Apr - 15:38:56 10° NW 15:41:04 12° NNW 15:43:16 10° NNE daylight
09 Apr - 17:23:36 10° NNW 17:26:05 13° NNE 17:28:40 10° NE daylight
09 Apr - 19:05:38 10° NNW 19:10:28 30° NE 19:15:35 10° E daylight
09 Apr - 20:47:56 10° NW 20:53:34 72° WSW 20:59:32 10° SSE visible
09 Apr - 22:32:29 10° WNW 22:35:22 14° WSW 22:38:19 10° SW visible
10 Apr - 11:27:13 10° S 11:31:19 34° ESE 11:35:46 10° NE daylight
10 Apr - 13:09:24 10° WSW 13:13:49 41° NW 13:18:39 10° NNE daylight
10 Apr - 14:55:08 10° NW 14:57:53 15° NNW 15:00:46 10° NNE daylight
10 Apr - 16:40:58 10° NNW 16:42:52 12° N 16:44:50 10° NNE daylight
10 Apr - 18:23:13 10° NNW 18:27:31 23° NNE 18:32:04 10° E daylight
10 Apr - 20:05:21 10° NW 20:10:59 77° NE 20:16:59 10° SE daylight
10 Apr - 21:48:46 10° WNW 21:53:09 23° WSW 21:57:41 10° SSW visible
11 Apr - 10:45:43 10° SSE 10:49:05 20° ESE 10:52:38 10° ENE daylight
11 Apr - 12:26:31 10° SW 12:31:06 63° NW 12:36:09 10° NNE daylight
11 Apr - 14:11:26 10° WNW 14:14:47 18° NNW 14:18:21 10° NNE daylight
11 Apr - 15:57:58 10° NNW 15:59:37 11° N 16:01:19 10° NNE daylight
11 Apr - 17:40:49 10° NNW 17:44:29 18° NNE 17:48:22 10° ENE daylight
11 Apr - 19:22:51 10° NNW 19:28:19 53° NE 19:34:09 10° SE daylight
11 Apr - 21:05:41 10° NW 21:10:50 35° WSW 21:16:14 10° S visible
12 Apr - 10:05:21 10° ESE 10:06:57 12° ESE 10:08:35 10° E daylight
12 Apr - 11:43:55 10° SSW 11:48:30 81° SE 11:53:34 10° NE daylight
12 Apr - 13:27:54 10° W 13:31:46 23° NNW 13:35:56 10° NNE daylight
12 Apr - 15:14:30 10° NNW 15:16:23 12° N 15:18:19 10° NNE daylight
12 Apr - 16:58:22 10° NNW 17:01:23 15° NNE 17:04:30 10° NE daylight
12 Apr - 18:40:24 10° NNW 18:45:33 37° NE 18:51:02 10° ESE daylight
12 Apr - 20:22:52 10° NW 20:28:25 55° WSW 20:34:16 10° SSE visible
13 Apr - 11:01:39 10° SSW 11:06:03 48° ESE 11:10:52 10° NE daylight
13 Apr - 12:44:35 10° WSW 12:48:52 32° NW 12:53:30 10° NNE daylight
13 Apr - 14:30:45 10° NW 14:33:10 13° NNW 14:35:41 10° NNE daylight
13 Apr - 16:15:51 10° NNW 16:18:12 13° NNE 16:20:37 10° NE daylight
13 Apr - 17:57:59 10° NNW 18:02:41 27° NE 18:07:40 10° E daylight
13 Apr - 19:40:13 10° NW 19:45:54 83° WSW 19:51:56 10° SSE daylight
13 Apr - 21:24:16 10° WNW 21:27:50 17° WSW 21:31:30 10° SW visible
